SCP
0 0 0 0 0 0 0 0 0 0 0 0 0 0 0 0 0 0 0 0 0 0 0 0 0 0 0 0 0 0 0 0 0 0 0 -0 -0 -0 0 0 0 0 0
0 0 0 0 0 0 0 0 0 0 0 0 0 0 0 0 0 0 0 0 0 0 0 0 0 0 0 0 0 0 0 0 0 0 0 0 -0 -0 -0 0 0 0 0
0 0 0 0 0 0 0 0 0 0 0 0 0 0 0 0 0 0 0 0 0 0 0 0 0 0 0 0 0 0 0 0 0 0 0 0 0 0 -0 -0 -0 0 0
0 0 0 0 0 0 0 0 0 0 0 0 0 0 0 0 0 0 0 0 0 0 0 0 0 0 0 0 0 0 0 0 0 0 0 0 0 0 0 0 0 0 0
0 0 0 0 0 0 0 0 0 0 0 0 0 0 0 0 0 0 0 0 0 0 0 0 0 0 0 0 0 0 0 0 0 0 0 0 0 0 0 0 0 0 0
0 0 0 0 0 0 0 0 0 0 0 0 0 0 0 0 0 0 0 0 0 0 0 0 0 0 0 0 0 0 0 0 0 0 0 0 0 0 0 0 0 0 0
0 0 0 0 0 0 0 0 0 0 0 0 0 0 0 0 0 0 0 0 0 0 0 0 0 0 0 0 0 0 0 0 0 0 0 0 0 0 0 0 0 0 0
0 0 0 0 0 0 0 0 0 0 0 0 0 0 0 0 0 0 0 0 0 0 0 0 0 0 0 0 0 0 0 0 0 0 0 0 0 0 0 0 0 0 0
0 0 0 0 0 0 0 0 0 0 0 0 0 0 0 0 0 0 0 0 0 0 0 0 0 0 0 0 0 0 0 0 0 0 0 0 0 0 0 0 0 0 0
0 0 0 0 0 0 0 0 0 0 0 0 0 0 0 0 0 0 0 0 0 0 0 0 0 0 0 0 0 0 0 0 0 0 0 0 0 0 0 0 0 0 0
0 0 0 0 0 0 0 0 0 0 0 0 0 0 0 0 0 0 0 0 0 0 0 0 0 0 0 0 0 0 0 0 0 0 0 0 0 -0 0 0 -0 0 0
0 0 0 0 0 0 0 0 0 0 0 0 0 0 0 0 0 0 0 0 0 0 0 0 0 0 0 0 0 0 0 0 0 0 0 0 0 0 0 0 -0 -0 -0
0 0 0 0 0 0 0 0 0 0 0 0 0 0 0 0 0 0 0 0 0 0 0 0 0 0 0 0 0 0 0 0 0 0 0 0 0 0 0 -0 0 -0 0
0 0 0 0 0 0 0 0 0 0 0 0 0 0 0 0 0 0 0 0 0 0 0 0 0 0 0 0 0 0 0 0 0 0 0 0 0 0 0 0 0 0 0
0 0 0 0 0 0 0 0 0 0 0 0 0 0 0 0 0 0 0 0 0 0 0 0 0 0 0 0 0 0 0 0 0 0 0 0 0 0 0 0 0 0 0
0 0 0 0 0 0 0 0 0 0 0 0 0 0 0 0 0 0 0 0 0 0 0 0 0 0 0 0 0 0 0 0 0 0 0 0 0 0 0 0 0 0 0
0 0 0 0 0 0 0 0 0 0 0 0 0 0 0 0 0 0 0 0 0 0 0 0 0 0 0 0 0 0 0 0 0 0 0 0 0 0 0 0 0 0 0
0 0 0 0 0 0 0 0 0 0 0 0 0 0 0 0 0 0 0 0 0 0 0 0 0 0 0 0 0 0 0 0 0 0 0 0 0 0 0 0 0 0 0
0 0 0 0 0 0 0 0 0 0 0 0 0 0 0 0 0 0 0 0 0 0 0 0 0 0 0 0 0 0 0 0 0 0 0 0 0 0 0 0 0 0 0
0 0 0 0 0 0 0 0 0 0 0 0 0 0 0 0 0 0 0 0 0 0 0 0 0 0 0 0 0 0 0 0 0 0 0 0 0 0 0 0 0 0 0
0 0 0 0 0 0 0 0 0 0 0 0 0 0 0 0 0 0 0 0 0 0 0 0 0 0 0 0 0 0 0 0 0 0 0 0 0 0 0 0 0 0 0
0 0 0 0 0 0 0 0 0 0 0 0 0 0 0 0 0 0 0 0 0 0 0 0 0 0 0 0 0 0 0 0 0 0 0 0 0 0 0 0 0 0 0
0 0 0 0 0 0 0 0 0 0 0 0 0 0 0 0 0 0 0 0 0 0 0 0 0 0 0 0 0 0 0 0 0 0 0 0 0 0 0 0 0 0 0
0 0 0 0 0 0 0 0 0 0 0 0 0 0 0 0 0 0 0 0 0 0 0 0 0 0 0 0 0 0 0 0 0 0 0 0 0 0 0 0 0 0 0
0 0 0 0 0 0 0 0 0 0 0 0 0 0 0 0 0 0 0 0 0 0 0 0 0 0 0 0 0 0 0 0 0 0 0 0 0 0 0 0 0 0 0
0 0 0 0 0 0 0 0 0 0 0 0 0 0 0 0 0 0 0 0 0 0 0 0 0 0 0 0 0 0 0 0 0 0 0 0 0 0 0 0 0 0 0
Wind_Speed_500mb
52 45 43 34 30 23 18 16 17 16 16 11 11 12 11 9 3 3 4 6 16 14 9 4 5 5 5 4 3 2 4 4 4 6 10 13 16 19 17 14 17 18 17
51 50 49 42 32 23 17 14 12 15 20 22 19 15 15 9 7 8 8 9 12 13 14 14 18 18 14 10 12 10 8 4 4 4 6 6 9 7 11 11 12 12 13
48 52 51 47 34 25 21 16 13 13 17 26 23 22 19 13 10 9 8 10 14 18 22 24 25 25 22 20 19 17 12 8 4 1 3 3 9 4 11 11 11 12 9
42 49 47 47 40 32 25 18 16 14 14 16 19 19 16 14 12 10 9 9 11 15 19 21 23 24 19 18 16 13 8 4 5 3 3 1 6 4 9 12 13 11 9
39 44 46 47 41 34 27 23 18 15 14 13 13 13 14 14 14 12 12 11 9 10 12 17 18 17 12 13 16 10 2 6 6 4 3 1 5 16 22 22 20 15 6
41 41 45 46 42 36 30 23 20 17 15 14 12 11 11 11 10 10 10 11 11 10 9 9 8 11 13 5 6 5 10 10 9 4 3 9 16 19 19 14 9 8 6
43 38 41 47 45 38 29 25 22 20 18 16 15 14 12 11 10 8 7 8 9 7 5 1 10 7 7 3 12 13 12 12 8 5 4 8 10 20 20 28 27 27 25
38 33 37 41 43 38 32 29 24 21 19 17 15 14 14 12 11 12 14 13 9 6 6 13 7 4 9 17 19 19 19 18 13 12 15 25 29 36 42 35 31 33 27
32 29 33 38 41 37 32 28 24 23 23 22 20 18 18 19 16 14 13 11 6 10 11 7 8 11 19 23 25 21 21 22 31 38 46 47 48 49 50 53 37 27 29
32 32 32 37 39 36 33 30 27 26 24 22 20 19 17 15 13 11 8 7 7 11 9 16 17 20 28 28 29 32 36 45 44 46 46 49 46 49 47 36 42 36 33
35 36 36 36 37 36 33 31 28 26 24 22 20 17 14 13 11 9 7 8 12 17 22 22 23 29 32 31 32 36 39 49 44 48 42 36 43 43 12 18 27 31 32
39 38 37 36 35 37 34 31 30 27 25 22 20 18 15 14 13 12 13 15 18 26 31 26 28 42 36 35 38 38 46 46 41 48 42 34 32 25 25 32 38 47 42
40 40 39 39 37 37 34 32 30 28 26 23 21 20 19 17 17 17 17 19 21 24 22 22 30 43 43 39 41 43 41 49 46 54 49 39 32 42 44 45 46 47 51
46 45 44 44 41 37 36 36 33 30 26 25 25 22 21 22 22 22 22 21 22 24 25 28 36 45 44 43 42 41 39 36 39 44 52 42 29 29 35 31 26 37 39
53 51 51 46 42 41 40 38 34 32 29 28 26 24 23 24 24 25 25 25 26 27 28 33 38 44 46 43 41 35 32 27 24 17 10 11 19 30 31 33 37 36 34
59 58 56 51 46 45 43 39 36 33 31 30 28 26 26 26 26 28 28 27 27 27 29 33 34 39 44 40 38 34 31 26 22 12 5 7 6 3 17 31 30 29 30
69 64 61 55 50 49 46 42 38 36 34 33 30 28 27 27 27 29 29 29 29 30 30 33 34 35 39 40 38 34 29 26 19 14 10 7 5 9 13 23 26 25 26
75 72 63 60 55 53 49 43 39 38 36 33 31 28 29 29 30 31 32 33 34 34 32 34 35 37 36 33 33 29 25 22 18 16 14 12 10 9 8 11 13 19 23
80 76 68 64 60 55 50 45 43 41 38 35 33 32 32 32 31 32 34 36 36 35 35 33 35 30 35 34 32 30 27 23 19 15 13 12 10 9 8 8 8 7 8
84 77 70 68 64 59 54 50 47 44 41 38 36 35 35 34 33 36 38 39 38 37 36 36 36 38 33 34 33 29 24 19 17 15 12 11 9 7 6 5 4 4 4
85 82 78 74 69 66 63 58 54 51 46 42 40 38 38 37 38 40 41 40 39 37 37 37 39 38 41 34 33 30 24 17 14 11 8 7 4 3 3 3 3 4 5
90 88 85 78 75 72 64 58 54 50 46 41 42 42 41 40 41 43 43 43 41 42 42 41 40 43 40 39 31 29 19 15 13 10 7 4 1 2 4 5 6 7 8
95 95 89 81 80 74 65 60 56 55 52 53 51 48 46 43 44 46 46 43 43 43 44 43 41 37 40 38 36 17 15 12 18 12 6 4 3 3 5 5 7 8 7
97 93 88 83 80 73 68 70 69 69 66 59 52 51 49 48 47 48 47 46 46 47 46 44 43 39 35 33 35 23 16 19 13 13 12 6 6 5 5 6 8 9 11
96 96 93 85 80 76 76 75 73 68 59 54 56 55 54 52 51 49 49 48 49 48 46 42 39 35 33 33 29 24 20 17 14 12 11 12 9 7 7 9 12 12 13
93 93 93 88 84 82 82 78 75 67 63 62 63 61 59 56 54 52 50 49 48 46 45 42 39 35 32 29 24 21 18 16 16 15 16 15 11 11 9 12 12 15 17
Wind_Direction_500mb
191 196 196 184 177 178 171 171 168 168 166 165 169 162 128 111 94 127 136 127 116 116 103 15 10 301 299 263 276 328 337 3 38 50 57 45 44 40 38 24 23 34 39
194 195 198 193 188 189 190 196 206 214 210 209 206 208 218 249 243 242 235 237 252 254 265 280 296 303 304 295 263 252 256 300 13 43 60 59 4 13 9 0 10 9 22
197 194 196 199 198 204 211 221 235 252 235 227 231 236 246 254 248 240 232 240 250 262 269 278 288 294 289 283 283 280 280 267 259 328 79 49 333 326 326 328 334 341 341
193 198 199 202 205 211 221 224 237 246 240 223 220 220 215 210 206 205 214 234 253 270 282 289 292 296 304 283 270 265 276 255 210 201 200 200 11 333 326 330 322 347 341
196 196 200 202 203 209 216 221 230 239 232 223 220 215 215 214 211 206 206 212 231 257 281 296 300 303 294 259 258 269 218 158 168 135 176 277 296 292 303 310 308 292 306
199 198 200 200 200 203 207 212 222 222 219 213 212 219 225 229 232 225 223 216 215 231 250 273 284 273 251 273 285 156 164 159 163 146 322 316 315 328 329 351 349 276 200
204 203 202 199 198 200 204 213 215 211 208 209 211 210 210 211 216 224 232 255 268 274 276 184 116 182 233 36 97 129 143 157 144 141 202 261 315 70 74 101 95 104 121
209 204 200 200 200 203 210 212 212 209 205 203 199 197 201 210 228 250 262 263 271 254 201 148 180 245 101 108 110 120 128 133 132 107 98 98 101 102 98 106 112 122 122
209 202 200 197 199 203 208 211 213 202 197 195 196 210 235 249 252 251 254 254 223 191 189 183 133 122 120 105 99 110 130 135 115 104 103 104 105 101 93 83 102 118 115
210 202 194 193 194 199 205 208 208 203 198 208 218 223 233 244 247 246 227 216 178 176 137 130 129 127 125 109 107 114 127 126 116 108 105 99 100 93 87 80 57 53 39
209 204 197 199 195 200 203 207 208 208 210 213 223 230 221 219 218 206 190 169 146 136 135 142 137 123 115 110 115 125 133 122 119 102 94 90 80 81 87 21 18 13 23
211 206 204 204 198 200 203 204 205 207 211 214 216 214 213 202 191 178 172 160 158 150 147 153 132 120 123 121 121 131 127 122 130 107 94 86 83 64 57 53 52 71 64
216 213 208 208 205 202 201 201 203 208 209 210 210 206 198 190 191 179 167 162 155 147 152 138 131 136 131 131 128 132 136 131 119 115 102 91 79 82 76 76 74 77 79
219 220 214 211 207 205 202 203 205 210 210 208 203 203 197 193 186 179 175 167 156 149 151 141 140 137 135 142 142 144 138 137 127 124 116 105 90 72 78 68 52 75 75
225 221 219 214 210 207 206 206 206 210 207 206 206 202 200 195 187 182 178 170 161 154 149 144 149 149 144 146 147 150 150 151 143 145 146 129 91 86 77 76 84 79 74
226 224 225 219 211 210 210 208 210 211 211 207 205 202 199 197 190 186 183 176 167 160 155 153 155 149 148 151 153 158 162 167 180 183 209 282 262 161 85 86 84 81 76
227 226 224 220 211 211 211 211 210 211 208 205 204 202 201 198 192 187 181 175 170 166 162 159 157 158 162 166 167 170 177 185 199 212 212 208 158 141 121 95 88 84 79
227 227 224 219 213 212 213 213 212 212 208 207 204 202 200 199 192 186 181 178 174 170 171 166 164 163 163 164 164 165 169 171 174 162 152 138 126 117 112 106 100 87 78
225 229 224 219 214 213 213 212 211 212 210 207 205 201 199 198 193 186 182 179 174 174 169 168 159 167 159 156 155 148 146 146 145 142 138 130 120 110 98 91 84 79 72
228 228 227 221 216 213 213 211 210 209 208 207 205 200 199 197 191 185 183 183 178 177 172 168 167 159 157 153 148 143 140 143 145 142 133 127 122 114 103 86 67 43 28
225 228 224 220 215 214 212 210 210 210 208 205 203 199 198 195 189 186 186 183 179 179 174 170 168 163 155 154 155 144 139 138 142 141 143 137 128 94 48 15 356 356 348
226 226 223 220 218 216 216 215 215 209 208 207 205 200 197 194 190 187 187 185 180 178 175 173 174 168 165 162 165 151 143 145 158 160 158 157 155 338 333 331 334 339 339
225 228 225 220 219 217 215 211 207 208 208 204 202 200 197 194 192 190 188 187 182 181 181 178 176 180 179 176 174 169 161 169 165 177 180 210 264 311 315 330 331 327 322
226 227 227 223 220 217 214 211 213 214 210 209 206 199 196 194 194 193 191 188 186 184 186 183 185 187 191 193 186 188 175 162 167 168 185 208 235 289 311 315 320 319 318
227 229 228 225 223 219 216 214 216 215 216 211 202 200 197 196 195 193 193 193 192 191 190 193 194 193 195 198 199 196 188 186 189 182 193 212 229 268 295 309 317 309 306
225 228 230 226 224 220 217 216 217 216 212 208 205 201 199 197 195 193 194 196 195 195 196 197 196 197 196 195 198 197 203 198 203 203 210 221 242 268 274 299 306 305 303
Wind_Speed_850mb
52 45 43 34 30 23 18 16 17 16 16 11 11 12 11 9 3 3 4 6 16 14 9 4 5 5 5 4 3 2 4 4 4 6 10 13 16 19 17 14 17 18 17
51 50 49 42 32 23 17 14 12 15 20 22 19 15 15 9 7 8 8 9 12 13 14 14 18 18 14 10 12 10 8 4 4 4 6 6 9 7 11 11 12 12 13
48 52 51 47 34 25 21 16 13 13 17 26 23 22 19 13 10 9 8 10 14 18 22 24 25 25 22 20 19 17 12 8 4 1 3 3 9 4 11 11 11 12 9
42 49 47 47 40 32 25 18 16 14 14 16 19 19 16 14 12 10 9 9 11 15 19 21 23 24 19 18 16 13 8 4 5 3 3 1 6 4 9 12 13 11 9
39 44 46 47 41 34 27 23 18 15 14 13 13 13 14 14 14 12 12 11 9 10 12 17 18 17 12 13 16 10 2 6 6 4 3 1 5 16 22 22 20 15 6
41 41 45 46 42 36 30 23 20 17 15 14 12 11 11 11 10 10 10 11 11 10 9 9 8 11 13 5 6 5 10 10 9 4 3 9 16 19 19 14 9 8 6
43 38 41 47 45 38 29 25 22 20 18 16 15 14 12 11 10 8 7 8 9 7 5 1 10 7 7 3 12 13 12 12 8 5 4 8 10 20 20 28 27 27 25
38 33 37 41 43 38 32 29 24 21 19 17 15 14 14 12 11 12 14 13 9 6 6 13 7 4 9 17 19 19 19 18 13 12 15 25 29 36 42 35 31 33 27
32 29 33 38 41 37 32 28 24 23 23 22 20 18 18 19 16 14 13 11 6 10 11 7 8 11 19 23 25 21 21 22 31 38 46 47 48 49 50 53 37 27 29
32 32 32 37 39 36 33 30 27 26 24 22 20 19 17 15 13 11 8 7 7 11 9 16 17 20 28 28 29 32 36 45 44 46 46 49 46 49 47 36 42 36 33
35 36 36 36 37 36 33 31 28 26 24 22 20 17 14 13 11 9 7 8 12 17 22 22 23 29 32 31 32 36 39 49 44 48 42 36 43 43 12 18 27 31 32
39 38 37 36 35 37 34 31 30 27 25 22 20 18 15 14 13 12 13 15 18 26 31 26 28 42 36 35 38 38 46 46 41 48 42 34 32 25 25 32 38 47 42
40 40 39 39 37 37 34 32 30 28 26 23 21 20 19 17 17 17 17 19 21 24 22 22 30 43 43 39 41 43 41 49 46 54 49 39 32 42 44 45 46 47 51
46 45 44 44 41 37 36 36 33 30 26 25 25 22 21 22 22 22 22 21 22 24 25 28 36 45 44 43 42 41 39 36 39 44 52 42 29 29 35 31 26 37 39
53 51 51 46 42 41 40 38 34 32 29 28 26 24 23 24 24 25 25 25 26 27 28 33 38 44 46 43 41 35 32 27 24 17 10 11 19 30 31 33 37 36 34
59 58 56 51 46 45 43 39 36 33 31 30 28 26 26 26 26 28 28 27 27 27 29 33 34 39 44 40 38 34 31 26 22 12 5 7 6 3 17 31 30 29 30
69 64 61 55 50 49 46 42 38 36 34 33 30 28 27 27 27 29 29 29 29 30 30 33 34 35 39 40 38 34 29 26 19 14 10 7 5 9 13 23 26 25 26
75 72 63 60 55 53 49 43 39 38 36 33 31 28 29 29 30 31 32 33 34 34 32 34 35 37 36 33 33 29 25 22 18 16 14 12 10 9 8 11 13 19 23
80 76 68 64 60 55 50 45 43 41 38 35 33 32 32 32 31 32 34 36 36 35 35 33 35 30 35 34 32 30 27 23 19 15 13 12 10 9 8 8 8 7 8
84 77 70 68 64 59 54 50 47 44 41 38 36 35 35 34 33 36 38 39 38 37 36 36 36 38 33 34 33 29 24 19 17 15 12 11 9 7 6 5 4 4 4
85 82 78 74 69 66 63 58 54 51 46 42 40 38 38 37 38 40 41 40 39 37 37 37 39 38 41 34 33 30 24 17 14 11 8 7 4 3 3 3 3 4 5
90 88 85 78 75 72 64 58 54 50 46 41 42 42 41 40 41 43 43 43 41 42 42 41 40 43 40 39 31 29 19 15 13 10 7 4 1 2 4 5 6 7 8
95 95 89 81 80 74 65 60 56 55 52 53 51 48 46 43 44 46 46 43 43 43 44 43 41 37 40 38 36 17 15 12 18 12 6 4 3 3 5 5 7 8 7
97 93 88 83 80 73 68 70 69 69 66 59 52 51 49 48 47 48 47 46 46 47 46 44 43 39 35 33 35 23 16 19 13 13 12 6 6 5 5 6 8 9 11
96 96 93 85 80 76 76 75 73 68 59 54 56 55 54 52 51 49 49 48 49 48 46 42 39 35 33 33 29 24 20 17 14 12 11 12 9 7 7 9 12 12 13
93 93 93 88 84 82 82 78 75 67 63 62 63 61 59 56 54 52 50 49 48 46 45 42 39 35 32 29 24 21 18 16 16 15 16 15 11 11 9 12 12 15 17
Wind_Direction_850mb
191 196 196 184 177 178 171 171 168 168 166 165 169 162 128 111 94 127 136 127 116 116 103 15 10 301 299 263 276 328 337 3 38 50 57 45 44 40 38 24 23 34 39
194 195 198 193 188 189 190 196 206 214 210 209 206 208 218 249 243 242 235 237 252 254 265 280 296 303 304 295 263 252 256 300 13 43 60 59 4 13 9 0 10 9 22
197 194 196 199 198 204 211 221 235 252 235 227 231 236 246 254 248 240 232 240 250 262 269 278 288 294 289 283 283 280 280 267 259 328 79 49 333 326 326 328 334 341 341
193 198 199 202 205 211 221 224 237 246 240 223 220 220 215 210 206 205 214 234 253 270 282 289 292 296 304 283 270 265 276 255 210 201 200 200 11 333 326 330 322 347 341
196 196 200 202 203 209 216 221 230 239 232 223 220 215 215 214 211 206 206 212 231 257 281 296 300 303 294 259 258 269 218 158 168 135 176 277 296 292 303 310 308 292 306
199 198 200 200 200 203 207 212 222 222 219 213 212 219 225 229 232 225 223 216 215 231 250 273 284 273 251 273 285 156 164 159 163 146 322 316 315 328 329 351 349 276 200
204 203 202 199 198 200 204 213 215 211 208 209 211 210 210 211 216 224 232 255 268 274 276 184 116 182 233 36 97 129 143 157 144 141 202 261 315 70 74 101 95 104 121
209 204 200 200 200 203 210 212 212 209 205 203 199 197 201 210 228 250 262 263 271 254 201 148 180 245 101 108 110 120 128 133 132 107 98 98 101 102 98 106 112 122 122
209 202 200 197 199 203 208 211 213 202 197 195 196 210 235 249 252 251 254 254 223 191 189 183 133 122 120 105 99 110 130 135 115 104 103 104 105 101 93 83 102 118 115
210 202 194 193 194 199 205 208 208 203 198 208 218 223 233 244 247 246 227 216 178 176 137 130 129 127 125 109 107 114 127 126 116 108 105 99 100 93 87 80 57 53 39
209 204 197 199 195 200 203 207 208 208 210 213 223 230 221 219 218 206 190 169 146 136 135 142 137 123 115 110 115 125 133 122 119 102 94 90 80 81 87 21 18 13 23
211 206 204 204 198 200 203 204 205 207 211 214 216 214 213 202 191 178 172 160 158 150 147 153 132 120 123 121 121 131 127 122 130 107 94 86 83 64 57 53 52 71 64
216 213 208 208 205 202 201 201 203 208 209 210 210 206 198 190 191 179 167 162 155 147 152 138 131 136 131 131 128 132 136 131 119 115 102 91 79 82 76 76 74 77 79
219 220 214 211 207 205 202 203 205 210 210 208 203 203 197 193 186 179 175 167 156 149 151 141 140 137 135 142 142 144 138 137 127 124 116 105 90 72 78 68 52 75 75
225 221 219 214 210 207 206 206 206 210 207 206 206 202 200 195 187 182 178 170 161 154 149 144 149 149 144 146 147 150 150 151 143 145 146 129 91 86 77 76 84 79 74
226 224 225 219 211 210 210 208 210 211 211 207 205 202 199 197 190 186 183 176 167 160 155 153 155 149 148 151 153 158 162 167 180 183 209 282 262 161 85 86 84 81 76
227 226 224 220 211 211 211 211 210 211 208 205 204 202 201 198 192 187 181 175 170 166 162 159 157 158 162 166 167 170 177 185 199 212 212 208 158 141 121 95 88 84 79
227 227 224 219 213 212 213 213 212 212 208 207 204 202 200 199 192 186 181 178 174 170 171 166 164 163 163 164 164 165 169 171 174 162 152 138 126 117 112 106 100 87 78
225 229 224 219 214 213 213 212 211 212 210 207 205 201 199 198 193 186 182 179 174 174 169 168 159 167 159 156 155 148 146 146 145 142 138 130 120 110 98 91 84 79 72
228 228 227 221 216 213 213 211 210 209 208 207 205 200 199 197 191 185 183 183 178 177 172 168 167 159 157 153 148 143 140 143 145 142 133 127 122 114 103 86 67 43 28
225 228 224 220 215 214 212 210 210 210 208 205 203 199 198 195 189 186 186 183 179 179 174 170 168 163 155 154 155 144 139 138 142 141 143 137 128 94 48 15 356 356 348
226 226 223 220 218 216 216 215 215 209 208 207 205 200 197 194 190 187 187 185 180 178 175 173 174 168 165 162 165 151 143 145 158 160 158 157 155 338 333 331 334 339 339
225 228 225 220 219 217 215 211 207 208 208 204 202 200 197 194 192 190 188 187 182 181 181 178 176 180 179 176 174 169 161 169 165 177 180 210 264 311 315 330 331 327 322
226 227 227 223 220 217 214 211 213 214 210 209 206 199 196 194 194 193 191 188 186 184 186 183 185 187 191 193 186 188 175 162 167 168 185 208 235 289 311 315 320 319 318
227 229 228 225 223 219 216 214 216 215 216 211 202 200 197 196 195 193 193 193 192 191 190 193 194 193 195 198 199 196 188 186 189 182 193 212 229 268 295 309 317 309 306
225 228 230 226 224 220 217 216 217 216 212 208 205 201 199 197 195 193 194 196 195 195 196 197 196 197 196 195 198 197 203 198 203 203 210 221 242 268 274 299 306 305 303